Terminal Aerodrome Forecast
Issued by NWS

Home | Current Version | Previous Version | Text Only | Print | Product List | Glossary On
Versions: 1 2 3 4 5 6 7 8 9 10 11 12 13 14 15 16 17 18 19 20 21 22 23 24 25 26 27 28 29 30 31 32 33 34 35 36
000
FTUS41 KBUF 042024 AAA
TAFJHW
TAF AMD
KJHW 042024Z 0420/0518 VRB03KT P6SM BKN080
     FM042200 04008KT P6SM VCSH BKN040
     FM050300 08008KT P6SM SCT025
     FM050600 10004KT P6SM SCT007 OVC060
     FM051400 06007KT P6SM SCT015 OVC060
     FM051500 05008KT P6SM VCSH SCT015 OVC035
      AMD LTD TO CLD VIS AND WIND=

USA.gov is the U.S. government's official web portal to all federal, state and local government web resources and services.